{"data":{"norad_id":62654,"intl_designator":"2025-009AX","name":"BRO-16","alt_names":[],"object_type":"PAYLOAD","status":"ACTIVE","operator":null,"country":"FR","launch_date":"2025-01-14","launch_site_code":"AFWTR","launch_vehicle":null,"mission":null,"orbit_class":"UNKNOWN","rcs_meters":null,"size_class":null,"mass_kg":null,"dimensions":null,"purposes":[],"wikipedia_slug":null,"has_3d_model":false,"image_url":null,"decayed_at":null,"tle_current":{"epoch":"2026-05-25T03:52:51.653280Z","epoch_age_seconds":61912,"freshness":"FRESH","line1":"1 62654U 25009AX  26145.16170895  .00003834  00000+0  16244-3 0  9991","line2":"2 62654  97.4054 225.9332 0002871  58.5150 301.6367 15.23745761 75292","mean_motion":15.23745761,"eccentricity":0.0002871,"inclination_deg":97.4054,"raan_deg":225.9332,"arg_perigee_deg":58.515,"mean_anomaly_deg":301.6367,"bstar":0.00016244,"rev_number":7529,"period_min":94.503954455956,"perigee_km":492.58110570757,"apogee_km":496.5274050264,"semimajor_km":6872.691255367,"source":"CELESTRAK","updated_at":"2026-05-25T13:38:03.159534Z"}}}